Satellite-Ground Cal/Val Region Overpasses Predictions

Prediction of Satellite NPP Overpassing Cal/Val Region: PacNW

Region Location: (Latitude: 10.00, Longitude: 139.50) to (Latitude: 22.70, Longitude: 165.60).

Table of predicted overpasses for the next 14.0 days since TLE Epoch: 11/18/2023
Interval Starting Time Starting Location Ending Time Ending Location
1 11/18/2023 14:52:50 ( 22.70, 161.84) 11/18/2023 14:56:26 ( 10.02, 158.83)
2 11/19/2023 03:43:26 ( 10.05, 143.98) 11/19/2023 03:47:01 ( 22.67, 140.98)
3 11/19/2023 14:34:58 ( 18.62, 165.60) 11/19/2023 14:37:24 ( 10.04, 163.59)
4 11/19/2023 16:15:19 ( 22.66, 141.21) 11/19/2023 16:17:19 ( 15.62, 139.51)
5 11/20/2023 03:24:23 ( 10.03, 148.75) 11/20/2023 03:27:58 ( 22.65, 145.75)
6 11/20/2023 15:56:16 ( 22.68, 145.98) 11/20/2023 15:59:51 ( 10.06, 142.98)
7 11/21/2023 03:05:21 ( 10.01, 153.51) 11/21/2023 03:08:57 ( 22.69, 150.50)
8 11/21/2023 15:37:14 ( 22.70, 150.74) 11/21/2023 15:40:50 ( 10.02, 147.73)
9 11/22/2023 02:46:19 ( 10.04, 158.26) 11/22/2023 02:49:54 ( 22.67, 155.26)
10 11/22/2023 15:18:12 ( 22.66, 155.49) 11/22/2023 15:21:47 ( 10.04, 152.49)
11 11/23/2023 02:27:17 ( 10.03, 163.02) 11/23/2023 02:30:52 ( 22.65, 160.02)
12 11/23/2023 14:59:10 ( 22.68, 160.25) 11/23/2023 15:02:45 ( 10.06, 157.25)
13 11/24/2023 02:10:53 ( 19.34, 165.59) 11/24/2023 02:11:50 ( 22.69, 164.77)
14 11/24/2023 03:49:44 ( 10.01, 142.41) 11/24/2023 03:53:12 ( 22.23, 139.51)
15 11/24/2023 14:40:07 ( 22.70, 165.01) 11/24/2023 14:43:43 ( 10.02, 162.00)
16 11/24/2023 16:21:37 ( 22.69, 139.64) 11/24/2023 16:21:46 ( 22.16, 139.50)
17 11/25/2023 03:30:43 ( 10.06, 147.15) 11/25/2023 03:34:18 ( 22.68, 144.15)
18 11/25/2023 16:02:36 ( 22.65, 144.38) 11/25/2023 16:06:11 ( 10.03, 141.38)
19 11/26/2023 03:11:40 ( 10.04, 151.92) 11/26/2023 03:15:15 ( 22.66, 148.92)
20 11/26/2023 15:43:33 ( 22.66, 149.14) 11/26/2023 15:47:08 ( 10.04, 146.14)
21 11/27/2023 02:52:38 ( 10.03, 156.68) 11/27/2023 02:56:13 ( 22.65, 153.68)
22 11/27/2023 15:24:31 ( 22.68, 153.91) 11/27/2023 15:28:06 ( 10.06, 150.91)
23 11/28/2023 02:33:36 ( 10.01, 161.44) 11/28/2023 02:37:12 ( 22.69, 158.42)
24 11/28/2023 15:05:28 ( 22.69, 158.67) 11/28/2023 15:09:04 ( 10.01, 155.65)
25 11/29/2023 02:15:18 ( 12.64, 165.59) 11/29/2023 02:18:09 ( 22.68, 163.19)
26 11/29/2023 03:56:03 ( 10.01, 140.82) 11/29/2023 03:57:40 ( 15.71, 139.50)
27 11/29/2023 14:46:27 ( 22.64, 163.41) 11/29/2023 14:50:02 ( 10.02, 160.41)
28 11/30/2023 03:37:02 ( 10.05, 145.57) 11/30/2023 03:40:37 ( 22.68, 142.57)
29 11/30/2023 14:30:28 ( 11.85, 165.59) 11/30/2023 14:30:59 ( 10.03, 165.18)
30 11/30/2023 16:08:54 ( 22.65, 142.80) 11/30/2023 16:12:29 ( 10.03, 139.80)
31 12/01/2023 03:17:59 ( 10.04, 150.33) 12/01/2023 03:21:34 ( 22.67, 147.33)
